Time,TemperatureF,DewpointF,PressureIn,WindDirection,WindDirectionDegrees,WindSpeedMPH,WindSpeedGustMPH,Humidity,HourlyPrecipIn,Conditions,Clouds,dailyrainin,SoftwareType,DateUTC
2013-12-14 00:07:00,35.2,19.0,30.44,SE,139,0.0,6.0,53,0.00,,,0.00,weatherlink.com 1.10,2013-12-14 05:07:00,
2013-12-14 00:22:00,35.2,19.0,30.44,SE,136,6.0,9.0,53,0.00,,,0.00,weatherlink.com 1.10,2013-12-14 05:22:00,
2013-12-14 00:37:00,35.5,20.0,30.42,South,186,5.0,10.0,53,0.00,,,0.00,weatherlink.com 1.10,2013-12-14 05:37:00,
2013-12-14 00:52:00,35.2,21.0,30.41,South,173,2.0,7.0,56,0.00,,,0.00,weatherlink.com 1.10,2013-12-14 05:52:00,
2013-12-14 01:07:00,34.9,21.0,30.42,South,190,2.0,7.0,57,0.00,,,0.00,weatherlink.com 1.10,2013-12-14 06:07:00,
2013-12-14 01:22:00,34.6,20.0,30.41,South,169,3.0,6.0,56,0.00,,,0.00,weatherlink.com 1.10,2013-12-14 06:22:00,
2013-12-14 01:37:00,34.8,20.0,30.38,SE,142,3.0,7.0,56,0.00,,,0.00,weatherlink.com 1.10,2013-12-14 06:37:00,
2013-12-14 01:52:00,34.6,21.0,30.38,SSE,149,4.0,7.0,58,0.00,,,0.00,weatherlink.com 1.10,2013-12-14 06:52:00,
2013-12-14 02:07:00,34.2,21.0,30.37,South,187,4.0,7.0,59,0.00,,,0.00,weatherlink.com 1.10,2013-12-14 07:07:00,
2013-12-14 02:23:00,34.2,21.0,30.41,South,190,6.0,7.0,60,0.00,,,0.00,weatherlink.com 1.10,2013-12-14 07:23:00,
2013-12-14 02:38:00,34.6,23.0,30.41,SSW,194,7.0,12.0,64,0.00,,,0.00,weatherlink.com 1.10,2013-12-14 07:38:00,
2013-12-14 02:53:00,35.4,23.0,30.39,SSE,162,5.0,11.0,62,0.00,,,0.00,weatherlink.com 1.10,2013-12-14 07:53:00,
2013-12-14 03:23:00,34.9,23.0,30.39,SSW,195,7.0,8.0,62,0.00,,,0.00,weatherlink.com 1.10,2013-12-14 08:23:00,
2013-12-14 03:38:00,34.7,23.0,30.38,SSE,151,2.0,8.0,63,0.00,,,0.00,weatherlink.com 1.10,2013-12-14 08:38:00,
2013-12-14 03:53:00,35.0,23.0,30.36,SSE,167,3.0,6.0,63,0.00,,,0.00,weatherlink.com 1.10,2013-12-14 08:53:00,
2013-12-14 04:08:00,34.7,23.0,30.37,South,184,8.0,12.0,62,0.00,,,0.00,weatherlink.com 1.10,2013-12-14 09:08:00,
2013-12-14 04:23:00,34.4,22.0,30.36,SSE,157,5.0,8.0,62,0.00,,,0.00,weatherlink.com 1.10,2013-12-14 09:23:00,
2013-12-14 04:38:00,34.5,23.0,30.35,South,181,5.0,7.0,63,0.00,,,0.00,weatherlink.com 1.10,2013-12-14 09:38:00,
2013-12-14 04:53:00,34.2,23.0,30.34,South,178,1.0,6.0,65,0.00,,,0.00,weatherlink.com 1.10,2013-12-14 09:53:00,
2013-12-14 05:08:00,34.6,25.0,30.33,South,170,4.0,6.0,67,0.00,,,0.00,weatherlink.com 1.10,2013-12-14 10:08:00,
2013-12-14 05:23:00,35.2,24.0,30.31,SSE,150,3.0,8.0,65,0.00,,,0.00,weatherlink.com 1.10,2013-12-14 10:23:00,
2013-12-14 05:38:00,34.8,24.0,30.32,South,185,6.0,7.0,65,0.00,,,0.00,weatherlink.com 1.10,2013-12-14 10:38:00,
2013-12-14 05:53:00,34.4,24.0,30.30,South,180,2.0,7.0,65,0.00,,,0.00,weatherlink.com 1.10,2013-12-14 10:53:00,
2013-12-14 06:08:00,34.2,23.0,30.31,SSE,157,3.0,7.0,65,0.00,,,0.00,weatherlink.com 1.10,2013-12-14 11:08:00,
2013-12-14 06:23:00,34.4,24.0,30.32,SSE,162,5.0,8.0,66,0.00,,,0.00,weatherlink.com 1.10,2013-12-14 11:23:00,
2013-12-14 06:38:00,34.5,24.0,30.30,SSE,158,3.0,9.0,66,0.00,,,0.00,weatherlink.com 1.10,2013-12-14 11:38:00,
2013-12-14 06:53:00,34.3,24.0,30.32,South,182,6.0,8.0,66,0.00,,,0.00,weatherlink.com 1.10,2013-12-14 11:53:00,
2013-12-14 07:08:00,34.3,24.0,30.31,South,188,2.0,8.0,67,0.00,,,0.00,weatherlink.com 1.10,2013-12-14 12:08:00,
2013-12-14 07:23:00,34.2,25.0,30.30,SSE,153,2.0,8.0,68,0.00,,,0.00,weatherlink.com 1.10,2013-12-14 12:23:00,
2013-12-14 07:38:00,34.3,25.0,30.31,SSE,158,4.0,6.0,69,0.00,,,0.00,weatherlink.com 1.10,2013-12-14 12:38:00,
2013-12-14 07:53:00,34.1,25.0,30.31,South,181,2.0,6.0,68,0.00,,,0.00,weatherlink.com 1.10,2013-12-14 12:53:00,
2013-12-14 08:08:00,33.9,24.0,30.31,South,186,1.0,4.0,68,0.00,,,0.00,weatherlink.com 1.10,2013-12-14 13:08:00,
2013-12-14 08:23:00,33.6,27.0,30.31,SSW,207,4.0,5.0,76,0.00,,,0.00,weatherlink.com 1.10,2013-12-14 13:23:00,
2013-12-14 08:38:00,32.6,28.0,30.30,SE,142,2.0,4.0,83,0.00,,,0.00,weatherlink.com 1.10,2013-12-14 13:38:00,
2013-12-14 08:53:00,32.4,29.0,30.28,South,178,1.0,5.0,87,0.00,,,0.00,weatherlink.com 1.10,2013-12-14 13:53:00,
2013-12-14 09:08:00,32.5,30.0,30.28,SSE,156,2.0,5.0,90,0.00,,,0.00,weatherlink.com 1.10,2013-12-14 14:08:00,
2013-12-14 09:23:00,32.4,30.0,30.29,SSE,166,2.0,6.0,91,0.01,,,0.01,weatherlink.com 1.10,2013-12-14 14:23:00,
2013-12-14 09:38:00,31.9,30.0,30.28,SSW,196,4.0,6.0,92,0.02,,,0.02,weatherlink.com 1.10,2013-12-14 14:38:00,
2013-12-14 09:53:00,31.8,30.0,30.28,SSW,198,2.0,4.0,93,0.02,,,0.02,weatherlink.com 1.10,2013-12-14 14:53:00,
2013-12-14 10:08:00,32.1,30.0,30.27,South,183,2.0,5.0,93,0.05,,,0.05,weatherlink.com 1.10,2013-12-14 15:08:00,
2013-12-14 10:23:00,32.0,31.0,30.26,South,183,2.0,4.0,94,0.06,,,0.07,weatherlink.com 1.10,2013-12-14 15:23:00,
2013-12-14 10:38:00,32.3,31.0,30.24,South,184,5.0,6.0,94,0.09,,,0.11,weatherlink.com 1.10,2013-12-14 15:38:00,
2013-12-14 10:53:00,32.1,31.0,30.23,SSW,211,3.0,6.0,94,0.10,,,0.12,weatherlink.com 1.10,2013-12-14 15:53:00,
2013-12-14 11:08:00,32.4,31.0,30.22,SSW,211,3.0,7.0,94,0.11,,,0.16,weatherlink.com 1.10,2013-12-14 16:08:00,
2013-12-14 11:23:00,32.7,31.0,30.20,SSW,211,4.0,6.0,94,0.13,,,0.20,weatherlink.com 1.10,2013-12-14 16:23:00,
2013-12-14 11:38:00,32.8,31.0,30.18,SSW,210,0.0,7.0,94,0.13,,,0.24,weatherlink.com 1.10,2013-12-14 16:38:00,
2013-12-14 11:54:00,32.8,31.0,30.17,SSW,210,1.0,5.0,94,0.14,,,0.27,weatherlink.com 1.10,2013-12-14 16:54:00,
2013-12-14 12:09:00,32.8,31.0,30.16,SSW,211,2.0,5.0,94,0.15,,,0.31,weatherlink.com 1.10,2013-12-14 17:09:00,
2013-12-14 12:24:00,32.9,31.0,30.14,SSW,211,0.0,4.0,94,0.15,,,0.36,weatherlink.com 1.10,2013-12-14 17:24:00,
2013-12-14 12:39:00,33.1,32.0,30.14,SSW,211,0.0,0.0,94,0.15,,,0.39,weatherlink.com 1.10,2013-12-14 17:39:00,
2013-12-14 12:54:00,33.2,32.0,30.13,SSW,211,0.0,0.0,94,0.18,,,0.46,weatherlink.com 1.10,2013-12-14 17:54:00,
2013-12-14 13:09:00,33.2,32.0,30.14,SSW,211,0.0,0.0,94,0.23,,,0.55,weatherlink.com 1.10,2013-12-14 18:09:00,
2013-12-14 13:24:00,33.4,32.0,30.11,SSW,210,0.0,0.0,95,0.27,,,0.63,weatherlink.com 1.10,2013-12-14 18:24:00,
2013-12-14 13:39:00,33.4,32.0,30.10,SSW,210,0.0,0.0,94,0.28,,,0.67,weatherlink.com 1.10,2013-12-14 18:39:00,
2013-12-14 13:54:00,33.4,32.0,30.09,SSW,210,0.0,0.0,94,0.21,,,0.68,weatherlink.com 1.10,2013-12-14 18:54:00,
2013-12-14 14:08:00,33.4,32.0,30.09,SSW,210,0.0,0.0,95,0.13,,,0.68,weatherlink.com 1.10,2013-12-14 19:08:00,
2013-12-14 14:23:00,33.4,32.0,30.08,SSW,209,0.0,0.0,95,0.06,,,0.69,weatherlink.com 1.10,2013-12-14 19:23:00,
2013-12-14 14:39:00,33.6,32.0,30.07,SSW,209,0.0,0.0,95,0.03,,,0.70,weatherlink.com 1.10,2013-12-14 19:39:00,
2013-12-14 14:54:00,33.9,33.0,30.07,SSW,209,0.0,0.0,95,0.02,,,0.70,weatherlink.com 1.10,2013-12-14 19:54:00,
2013-12-14 15:09:00,34.3,33.0,30.07,SSW,209,0.0,0.0,95,0.03,,,0.71,weatherlink.com 1.10,2013-12-14 20:09:00,
2013-12-14 15:24:00,34.8,34.0,30.06,SSW,210,0.0,0.0,95,0.02,,,0.71,weatherlink.com 1.10,2013-12-14 20:24:00,
2013-12-14 15:39:00,35.4,34.0,30.06,SSW,209,0.0,0.0,95,0.02,,,0.72,weatherlink.com 1.10,2013-12-14 20:39:00,
2013-12-14 15:54:00,35.8,35.0,30.06,SSW,209,0.0,1.0,95,0.02,,,0.72,weatherlink.com 1.10,2013-12-14 20:54:00,
2013-12-14 16:10:00,36.5,35.0,30.05,SSW,195,2.0,4.0,95,0.01,,,0.72,weatherlink.com 1.10,2013-12-14 21:10:00,
2013-12-14 16:25:00,36.7,35.0,30.04,SSW,194,3.0,5.0,95,0.02,,,0.73,weatherlink.com 1.10,2013-12-14 21:25:00,
2013-12-14 16:40:00,36.5,35.0,30.04,SSW,194,3.0,4.0,95,0.01,,,0.73,weatherlink.com 1.10,2013-12-14 21:40:00,
2013-12-14 16:55:00,36.4,35.0,30.03,SSW,194,3.0,4.0,95,0.01,,,0.73,weatherlink.com 1.10,2013-12-14 21:55:00,
2013-12-14 17:10:00,36.2,35.0,30.03,SSE,154,0.0,4.0,95,0.02,,,0.74,weatherlink.com 1.10,2013-12-14 22:10:00,
2013-12-14 17:25:00,36.5,35.0,30.03,SSE,162,2.0,3.0,95,0.01,,,0.74,weatherlink.com 1.10,2013-12-14 22:25:00,
2013-12-14 17:40:00,35.8,35.0,30.04,South,176,3.0,6.0,95,0.01,,,0.74,weatherlink.com 1.10,2013-12-14 22:40:00,
2013-12-14 17:55:00,35.3,34.0,30.04,South,191,2.0,7.0,95,0.01,,,0.74,weatherlink.com 1.10,2013-12-14 22:55:00,
2013-12-14 18:09:00,35.6,34.0,30.03,SE,139,1.0,2.0,95,0.00,,,0.74,weatherlink.com 1.10,2013-12-14 23:09:00,
2013-12-14 18:24:00,36.8,36.0,30.02,East,91,0.0,3.0,95,0.01,,,0.75,weatherlink.com 1.10,2013-12-14 23:24:00,
2013-12-14 18:39:00,37.0,36.0,30.03,SSE,161,3.0,5.0,95,0.01,,,0.75,weatherlink.com 1.10,2013-12-14 23:39:00,
2013-12-14 18:54:00,36.2,35.0,30.02,East,82,0.0,3.0,95,0.01,,,0.75,weatherlink.com 1.10,2013-12-14 23:54:00,
2013-12-14 19:09:00,36.7,35.0,30.02,East,83,0.0,2.0,95,0.01,,,0.75,weatherlink.com 1.10,2013-12-15 00:09:00,
2013-12-14 19:25:00,37.8,37.0,30.01,ENE,67,1.0,4.0,95,0.00,,,0.75,weatherlink.com 1.10,2013-12-15 00:25:00,
2013-12-14 19:40:00,38.1,37.0,30.00,ENE,67,2.0,3.0,95,0.00,,,0.75,weatherlink.com 1.10,2013-12-15 00:40:00,
2013-12-14 19:55:00,38.9,38.0,30.00,South,178,0.0,6.0,95,0.01,,,0.76,weatherlink.com 1.10,2013-12-15 00:55:00,
2013-12-14 20:09:00,38.8,38.0,29.98,ESE,104,0.0,3.0,95,0.01,,,0.76,weatherlink.com 1.10,2013-12-15 01:09:00,
2013-12-14 20:24:00,38.3,37.0,29.97,ESE,108,1.0,3.0,95,0.01,,,0.76,weatherlink.com 1.10,2013-12-15 01:24:00,
2013-12-14 20:39:00,38.5,37.0,30.00,SSW,201,2.0,5.0,95,0.01,,,0.76,weatherlink.com 1.10,2013-12-15 01:39:00,
2013-12-14 20:54:00,38.4,37.0,29.99,SSE,148,1.0,5.0,95,0.01,,,0.77,weatherlink.com 1.10,2013-12-15 01:54:00,
2013-12-14 21:09:00,38.0,37.0,29.99,SE,137,1.0,3.0,95,0.01,,,0.77,weatherlink.com 1.10,2013-12-15 02:09:00,
2013-12-14 21:25:00,37.8,37.0,29.96,NNE,22,2.0,5.0,95,0.01,,,0.77,weatherlink.com 1.10,2013-12-15 02:25:00,
2013-12-14 21:40:00,38.5,37.0,29.97,North,11,2.0,6.0,95,0.01,,,0.77,weatherlink.com 1.10,2013-12-15 02:40:00,
2013-12-14 21:55:00,40.6,39.0,29.98,NNE,12,1.0,3.0,95,0.01,,,0.78,weatherlink.com 1.10,2013-12-15 02:55:00,
2013-12-14 22:09:00,41.9,41.0,29.98,NNE,12,3.0,3.0,95,0.01,,,0.78,weatherlink.com 1.10,2013-12-15 03:09:00,
2013-12-14 22:24:00,41.0,40.0,29.94,North,350,5.0,5.0,95,0.01,,,0.78,weatherlink.com 1.10,2013-12-15 03:24:00,
2013-12-14 22:39:00,41.3,40.0,29.96,North,5,4.0,7.0,95,0.01,,,0.78,weatherlink.com 1.10,2013-12-15 03:39:00,
2013-12-14 22:54:00,41.4,40.0,29.97,NNE,19,5.0,11.0,95,0.01,,,0.79,weatherlink.com 1.10,2013-12-15 03:54:00,
2013-12-14 23:10:00,41.2,40.0,29.94,NNE,21,6.0,8.0,95,0.01,,,0.79,weatherlink.com 1.10,2013-12-15 04:10:00,
2013-12-14 23:25:00,40.7,39.0,29.94,NNE,17,5.0,8.0,95,0.01,,,0.79,weatherlink.com 1.10,2013-12-15 04:25:00,
2013-12-14 23:40:00,41.4,40.0,29.95,NNE,17,5.0,6.0,95,0.02,,,0.80,weatherlink.com 1.10,2013-12-15 04:40:00,
2013-12-14 23:55:00,41.1,40.0,29.93,NE,37,3.0,5.0,95,0.01,,,0.80,weatherlink.com 1.10,2013-12-15 04:55:00,